This is the latest recevied weather packets stored in our database for station/object K8JCL-13. If no packets are shown the sender has not sent any weather packets the latest 10 day(s).
| Time | Temp. | Humidity | Pressure | Rain* | Wind** | Luminosity | Snow |
|---|---|---|---|---|---|---|---|
| 1777754846 | 10° C | 49% | 1017.1 hPa | 0 mm | - | 146 W/m² | - |
| 1777754543 | 10° C | 46% | 1017.2 hPa | 0 mm | - | 150 W/m² | - |
| 1777754241 | 10° C | 47% | 1017.2 hPa | 0 mm | - | 152 W/m² | - |
| 1777753938 | 10° C | 47% | 1017.4 hPa | 0 mm | - | 154 W/m² | - |
| 1777753632 | 10° C | 47% | 1017.1 hPa | 0 mm | - | 160 W/m² | - |
| 1777753331 | 10° C | 47% | 1017.4 hPa | 0 mm | - | 152 W/m² | - |
| 1777753028 | 10° C | 46% | 1017.4 hPa | 0 mm | - | 159 W/m² | - |
| 1777752725 | 10° C | 48% | 1017.5 hPa | 0 mm | - | 170 W/m² | - |
| 1777752420 | 10° C | 47% | 1017.2 hPa | 0 mm | - | 145 W/m² | - |
| 1777752117 | 10° C | 47% | 1017.4 hPa | 0 mm | - | 159 W/m² | - |
| 1777751815 | 10.56° C | 47% | 1017.1 hPa | 0 mm | - | 150 W/m² | - |
| 1777751511 | 10.56° C | 47% | 1017.5 hPa | 0 mm | - | 171 W/m² | - |
| 1777751208 | 10.56° C | 48% | 1017.6 hPa | 0 mm | - | 437 W/m² | - |
| 1777750904 | 10.56° C | 46% | 1017.7 hPa | 0 mm | - | 135 W/m² | - |
| 1777750601 | 11.11° C | 50% | 1017.5 hPa | 0 mm | - | 531 W/m² | - |
| 1777750299 | 10° C | 47% | 1017.7 hPa | 0 mm | - | 709 W/m² | - |
| 1777749993 | 11.11° C | 47% | 1017.6 hPa | 0 mm | - | 164 W/m² | - |
| 1777749692 | 10.56° C | 50% | 1017.7 hPa | 0 mm | - | 734 W/m² | - |
| 1777749388 | 10° C | 47% | 1017.6 hPa | 0 mm | - | 724 W/m² | - |
| 1777749086 | 10° C | 48% | 1017.7 hPa | 0 mm | - | 162 W/m² | - |
| 1777748783 | 10° C | 46% | 1017.8 hPa | 0 mm | - | 722 W/m² | - |
| 1777748480 | 9.44° C | 48% | 1018.1 hPa | 0 mm | - | 250 W/m² | - |
| 1777748175 | 9.44° C | 48% | 1017.9 hPa | 0 mm | - | 189 W/m² | - |
| 1777747872 | 9.44° C | 47% | 1017.7 hPa | 0 mm | - | 192 W/m² | - |
| 1777747568 | 10° C | 48% | 1018 hPa | 0 mm | - | 202 W/m² | - |
* Rain latest hour (hover to see other rain measurements)
** Current wind speed in m/s (hover to see current wind gust speed)